Location: Bluff Heights
(33.7692°N, 118.1592°W)
Time: 10:35:17
(UTC+00:00)

Tiros 1 - Pass Details

Date: 24 July 2021
Orbit: 630 x 663 km, 48.4° (Epoch: 22 September)

Event Time Altitude Azimuth Distance (km) Brightness Sun altitude
Rises 08:31:48 0° 311° (NW) 2,944 10.9 -35.9°
Reaches altitude 10° 08:35:11 10° 336° (NNW) 2,026 10.2 -35.8°
Maximum altitude 08:37:43 14° 9° (N) 1,749 10.1 -35.7°
Drops below altitude 10° 08:40:15 10° 42° (NE) 2,016 10.3 -35.6°
Sets 08:43:36 0° 68° (ENE) 2,918 10.9 -35.4°
